This is the latest recevied weather packets stored in our database for station/object EW5546. If no packets are shown the sender has not sent any weather packets the latest 10 day(s).
| Time | Temp. | Humidity | Pressure | Rain* | Wind** | Luminosity | Snow |
|---|---|---|---|---|---|---|---|
| 1777414844 | 6.11° C | 28% | 1024.1 hPa | 0 mm | - | - | - |
| 1777410633 | 7.78° C | 29% | 1023.1 hPa | 0 mm | - | - | - |
| 1777399830 | 9.44° C | 24% | 1022.1 hPa | 0 mm | - | - | - |
| 1777394426 | 10.56° C | 11% | 1022.1 hPa | 0 mm | - | - | - |
| 1777387835 | 11.67° C | 13% | 1022.1 hPa | 0 mm | - | - | - |
| 1777387233 | 12.22° C | 15% | 1022.1 hPa | 0 mm | - | - | - |
| 1777386051 | 12.22° C | 19% | 1022.1 hPa | 0 mm | - | - | - |
| 1777384844 | 11.67° C | 18% | 1022.1 hPa | 0 mm | - | - | - |
| 1777384226 | 11.67° C | 16% | 1022.1 hPa | 0 mm | - | - | - |
| 1777378219 | 12.22° C | 17% | 1022.1 hPa | 0 mm | - | - | - |
| 1777373418 | 11.67° C | 25% | 1023.1 hPa | 0 mm | - | - | - |
| 1777370440 | 12.22° C | 26% | 1023.1 hPa | 0 mm | - | - | - |
| 1777369816 | 11.67° C | 27% | 1023.1 hPa | 0 mm | - | - | - |
| 1777365624 | 10.56° C | 29% | 1024.1 hPa | 0 mm | - | - | - |
| 1777364442 | 10.56° C | 29% | 1023.5 hPa | 0 mm | - | - | - |
| 1777363852 | 10.56° C | 30% | 1024.1 hPa | 0 mm | - | - | - |
| 1777363218 | 10° C | 30% | 1024.1 hPa | 0 mm | - | - | - |
| 1777362649 | 9.44° C | 31% | 1024.1 hPa | 0 mm | - | - | - |
| 1777362061 | 9.44° C | 31% | 1024.1 hPa | 0 mm | - | - | - |
| 1777360848 | 8.89° C | 33% | 1023.6 hPa | 0 mm | - | - | - |
| 1777359016 | 8.33° C | 37% | 1023.6 hPa | 0 mm | - | - | - |
| 1777354816 | 6.11° C | 39% | 1023.1 hPa | 0 mm | - | - | - |
| 1777351864 | 4.44° C | 39% | 1023.1 hPa | 0 mm | - | - | - |
| 1777350062 | 4.44° C | 39% | 1023.1 hPa | 0 mm | - | - | - |
| 1777349442 | 4.44° C | 39% | 1023.1 hPa | 0 mm | - | - | - |
* Rain latest hour (hover to see other rain measurements)
** Current wind speed in m/s (hover to see current wind gust speed)